Location: Bay Harbour
(38.2612°N, 75.2555°W)
Time: 02:30:23
(UTC+00:00)

Cosmos 1553 Rocket - Pass Details

Date: 29 October 2020
Orbit: 940 x 1009 km, 82.9° (Epoch: 02 December)

Event Time Altitude Azimuth Distance (km) Brightness Sun altitude
Rises 22:52:25 0° 178° (S) 3,714 7.1 -10.0°
Reaches altitude 10° 22:54:58 10° 176° (S) 2,762 6.4 -10.5°
Maximum altitude 23:01:16 71° 94° (E) 1,045 4.0 -11.7°
Drops below altitude 10° 23:07:31 10° 11° (NNE) 2,737 6.2 -12.9°
Sets 23:10:01 0° 10° (N) 3,679 6.8 -13.4°
